SCP
4 4 3 3 3 3 3 3 2 2 2 2 2 2 1 1 2 2 1 1 1 1 1 1 1 1 1 1 1 1 1 1 1 1 1 1 1 1 1 1 0 0 0
4 4 4 3 3 3 3 2 3 3 3 3 2 2 1 1 1 2 1 1 1 1 2 2 1 1 1 1 1 1 1 1 1 1 1 1 1 0 0 0 0 0 0
4 4 4 3 3 3 3 2 3 3 3 3 3 2 2 2 2 2 2 2 1 2 2 2 2 1 1 1 1 1 1 1 1 1 1 1 1 1 0 0 0 0 0
4 4 3 3 3 3 3 3 3 3 3 3 3 3 3 3 2 2 2 2 2 2 2 2 2 2 1 1 1 2 1 1 1 1 1 1 1 1 0 0 0 0 0
3 3 3 3 3 3 3 2 3 3 3 3 3 3 3 3 2 2 2 2 2 2 2 2 2 2 2 1 2 2 2 1 1 1 1 1 1 1 0 0 0 0 0
2 2 2 3 3 3 3 3 3 3 3 3 2 2 2 2 2 2 2 2 2 2 2 2 2 2 2 1 2 2 2 1 1 1 1 1 1 0 0 0 0 0 0
2 2 2 3 3 3 3 2 3 3 3 3 3 2 1 1 1 1 1 1 2 2 2 2 2 2 2 1 1 1 1 1 1 1 1 1 0 0 0 0 0 0 0
1 2 2 3 3 3 3 2 3 3 3 3 3 2 1 1 1 1 1 1 1 2 2 2 2 2 1 1 1 1 1 1 1 1 1 0 0 0 0 0 0 0 0
1 2 2 3 3 3 3 3 3 3 3 2 2 2 1 1 0 0 0 0 1 1 1 1 1 1 1 0 0 0 0 0 1 0 0 0 0 0 0 0 0 0 0
1 2 2 2 3 3 3 3 3 3 3 2 2 2 1 1 0 0 0 0 0 0 0 0 0 0 0 0 0 0 0 0 0 0 0 0 0 0 0 0 0 0 0
1 2 2 2 2 3 3 3 3 3 3 2 2 1 1 1 1 0 0 0 0 0 0 0 0 0 0 0 0 0 0 0 0 0 0 0 0 0 0 0 0 0 0
1 1 2 2 2 3 3 3 3 3 3 2 2 1 1 0 0 0 0 0 0 0 0 0 0 0 0 0 0 0 0 0 0 0 0 0 0 0 0 0 0 0 0
1 1 2 2 2 2 3 3 2 2 2 2 2 1 1 0 0 0 0 0 0 0 0 0 0 0 0 0 0 0 0 0 0 0 0 0 0 0 0 0 0 0 0
2 2 2 3 2 2 2 2 2 1 1 1 1 1 0 0 0 0 0 0 0 0 0 0 0 0 0 0 0 0 0 0 0 0 0 0 0 0 0 0 0 0 0
2 2 2 2 2 2 2 2 2 1 1 1 0 0 0 0 0 0 0 0 0 0 0 0 0 0 0 0 0 0 0 0 0 0 0 0 0 0 0 0 0 0 0
1 1 1 1 1 2 2 1 1 1 0 0 0 0 0 0 0 0 0 0 0 0 0 0 0 0 0 0 0 0 0 0 0 0 0 0 0 0 0 0 0 0 0
0 0 0 0 0 1 1 1 0 0 0 0 0 0 0 0 0 0 0 0 0 0 0 0 0 0 0 0 0 0 0 0 0 0 0 0 0 0 0 0 0 0 0
0 0 0 0 0 0 0 0 0 0 0 0 0 0 0 0 0 0 0 0 0 0 0 0 0 0 0 0 0 0 0 0 0 0 0 0 0 0 0 0 0 0 0
0 0 0 0 0 0 0 0 0 0 0 0 0 0 0 0 0 0 0 0 0 0 0 0 0 0 0 0 0 0 0 0 0 0 0 0 0 0 0 0 0 0 0
0 0 0 0 0 0 0 0 0 0 0 0 0 0 0 0 0 0 0 0 0 0 0 0 0 0 0 0 0 0 0 0 0 0 0 0 0 0 0 0 0 0 0
0 0 0 0 0 0 0 0 0 0 0 0 0 0 0 0 0 0 0 0 0 0 0 0 0 0 0 0 0 0 0 0 0 0 0 0 0 0 0 0 0 0 0
0 0 0 0 0 0 0 0 0 0 0 0 0 0 0 0 0 0 0 0 0 0 0 0 0 0 0 0 0 0 0 0 0 0 0 0 0 0 0 0 0 0 0
0 0 0 0 0 0 0 0 0 0 0 0 0 0 0 0 0 0 0 0 0 0 0 0 0 0 0 0 0 0 0 0 0 0 0 0 0 0 0 0 0 0 0
0 0 0 0 0 0 0 0 0 0 0 0 0 0 0 0 0 0 0 0 0 0 0 0 0 0 0 0 0 0 0 0 0 0 0 0 0 0 0 0 0 0 0
0 0 0 0 0 0 0 0 0 0 0 0 0 0 0 0 0 0 0 0 0 0 0 0 0 0 0 0 0 0 0 0 0 0 0 0 0 0 0 0 0 0 0
0 0 0 0 0 0 0 0 0 0 0 0 0 0 0 0 0 0 0 0 0 0 0 0 0 0 0 0 0 0 0 0 0 0 0 0 0 0 0 0 0 0 0
Wind_Speed
4 4 3 3 5 4 5 5 5 6 6 7 7 7 6 6 5 3 3 8 6 6 7 9 9 9 8 8 7 7 7 6 5 6 5 5 5 5 4 3 3 3 2
3 3 4 4 4 4 5 5 6 5 5 4 5 5 5 5 4 3 3 5 7 6 7 8 8 8 8 8 7 7 7 7 7 7 7 7 7 7 6 6 6 6 5
2 3 3 3 4 4 5 5 5 4 4 4 4 4 3 3 3 3 3 2 4 6 7 7 8 8 8 8 8 8 8 9 9 10 10 10 10 9 9 9 8 8 7
2 2 2 3 3 4 4 5 5 5 4 4 3 3 2 2 2 2 2 2 2 3 7 8 8 9 9 9 10 11 11 11 12 12 12 12 12 11 10 10 9 9 8
1 2 2 2 3 4 4 5 4 5 4 4 3 2 1 1 1 2 2 2 2 3 5 9 10 9 10 11 11 12 12 13 13 14 14 13 13 12 11 11 10 10 10
1 2 2 3 4 4 4 4 5 5 4 4 4 3 2 2 2 2 3 4 4 4 5 7 7 9 11 11 12 13 14 15 15 14 14 13 13 12 11 11 11 10 10
2 2 2 3 3 3 4 5 5 6 5 5 5 4 3 3 3 3 3 4 5 5 6 6 6 6 7 12 13 13 14 15 15 15 14 13 12 12 11 11 10 10 10
3 2 2 3 3 3 4 4 4 4 4 5 5 5 3 3 3 3 3 4 5 5 6 7 8 7 7 6 11 14 14 14 14 14 13 12 11 10 10 10 9 9 9
4 3 3 3 2 2 2 3 3 5 5 5 4 4 4 5 4 3 4 4 5 5 6 6 8 8 8 7 8 12 13 13 13 12 12 11 10 10 9 9 9 8 8
5 5 4 3 2 2 2 2 2 2 4 4 3 2 1 4 5 5 3 4 5 5 5 6 7 8 7 7 10 13 13 11 11 11 10 9 9 8 8 8 8 7 8
6 6 5 4 4 3 3 2 1 0 1 2 2 3 3 3 3 5 5 4 4 4 5 6 5 6 6 6 6 10 11 10 9 9 8 8 8 7 7 7 7 7 7
5 8 7 5 5 4 4 4 3 3 2 2 2 2 2 3 4 4 6 6 5 4 5 4 4 4 4 5 8 11 9 8 7 7 6 6 6 5 5 6 6 6 6
5 7 6 6 6 6 5 5 5 5 5 4 3 2 2 2 2 4 7 6 6 4 4 3 2 3 3 4 6 8 8 7 6 5 4 4 4 4 4 4 4 4 5
6 6 6 7 7 7 7 6 6 6 5 5 5 4 3 3 3 5 6 8 7 4 3 4 2 3 2 3 5 3 6 6 4 3 3 2 2 2 2 3 3 3 3
6 8 8 8 8 9 8 8 7 7 7 7 7 6 5 4 4 4 5 5 6 6 5 5 4 4 3 3 3 3 4 7 4 3 2 2 2 2 2 2 2 1 2
8 8 9 9 10 10 9 9 9 8 9 8 7 8 6 5 5 5 5 3 3 4 5 5 4 5 4 5 4 2 3 8 5 4 3 3 3 3 3 2 2 1 1
9 9 9 10 10 10 10 10 10 9 10 10 9 9 9 7 6 5 5 4 4 5 8 7 6 5 4 3 4 3 4 4 6 6 4 3 3 3 3 2 1 1 0
8 9 9 10 11 11 10 10 11 11 11 11 10 10 9 7 8 6 5 6 5 5 8 9 7 6 5 4 3 3 3 2 3 8 5 4 4 4 3 3 2 2 1
9 9 10 11 11 11 11 10 11 11 11 11 11 10 10 9 9 7 7 7 6 6 6 7 7 5 4 4 4 3 3 1 2 7 8 8 6 5 4 4 4 3 3
9 9 10 10 10 10 10 10 10 11 11 11 11 10 10 9 8 8 7 7 7 7 6 6 6 5 5 4 2 3 3 3 2 2 3 4 7 9 8 7 6 5 5
9 9 10 10 10 9 9 9 9 10 10 11 11 11 11 12 12 9 7 6 6 5 5 5 5 4 4 2 1 1 1 2 3 1 2 3 5 5 7 10 9 7 6
9 10 10 10 11 9 10 11 9 10 10 10 10 9 10 11 11 12 12 12 9 5 5 3 4 4 4 3 2 1 1 1 2 1 3 2 2 2 2 1 6 5 5
9 9 10 10 11 10 10 10 10 9 10 9 9 8 8 8 7 8 8 8 9 9 7 4 5 5 4 3 2 1 2 3 3 2 4 3 1 2 2 3 8 5 6
8 8 9 9 9 9 9 8 6 8 9 9 8 8 8 8 8 6 6 7 7 7 4 4 5 4 4 3 2 2 2 3 4 2 2 4 2 2 3 1 10 8 7
7 7 8 9 9 9 9 8 7 6 7 8 8 9 8 8 8 8 4 6 6 5 5 3 3 2 3 3 4 4 3 3 2 0 0 4 3 3 3 2 6 12 10
7 7 8 8 9 9 9 11 10 4 6 6 7 8 10 8 8 9 4 4 5 4 3 4 3 4 4 4 5 4 5 5 4 2 2 3 4 4 3 2 2 4 7
Wind_Direction
216 218 231 229 228 222 216 220 221 213 219 218 223 227 236 238 244 235 149 146 166 180 183 179 178 180 180 177 177 175 171 162 149 137 128 121 115 109 107 100 92 81 75
224 230 236 234 237 237 235 226 218 214 220 221 221 223 232 231 231 236 236 156 159 167 171 171 168 167 168 167 164 160 147 134 128 121 114 107 101 98 94 90 88 84 76
239 238 251 251 250 240 232 228 221 217 216 211 209 212 221 224 212 220 233 227 164 151 154 153 150 149 149 150 146 141 133 126 118 112 108 103 97 93 89 87 83 78 74
255 256 258 259 257 248 236 224 217 209 210 206 192 188 191 197 192 191 200 190 185 152 140 134 135 136 137 137 133 129 123 117 112 108 104 100 94 90 87 84 80 76 73
258 269 274 281 266 248 239 231 215 209 195 185 166 140 143 146 129 125 112 108 107 113 120 115 112 115 124 126 125 122 118 116 110 105 100 96 92 89 87 84 81 77 73
309 286 266 259 261 252 241 233 217 202 183 165 144 116 93 96 103 104 101 90 89 101 103 112 110 99 99 108 114 116 117 113 108 105 100 96 92 88 84 81 78 74 71
327 297 277 261 252 251 244 233 220 198 180 155 140 127 91 66 71 81 96 98 92 91 95 96 96 99 99 96 98 106 108 107 104 100 97 93 90 87 84 80 77 73 69
344 310 297 280 263 250 241 234 220 200 181 176 166 151 154 128 71 56 85 103 101 92 91 91 93 92 93 93 92 98 100 103 102 99 96 93 90 86 82 78 75 73 69
7 352 326 307 288 271 254 237 221 203 186 185 179 168 170 166 132 84 65 83 92 92 90 89 89 87 88 89 94 88 92 95 98 99 96 93 90 86 81 77 73 70 67
19 11 353 344 334 342 306 270 228 223 196 186 175 173 138 134 148 136 95 78 82 87 94 96 91 86 87 88 87 87 84 82 87 91 92 92 90 86 81 76 69 64 62
32 25 17 10 10 14 7 6 1 277 209 190 166 149 132 112 114 132 137 129 100 78 81 86 90 92 91 93 96 92 87 81 82 86 88 88 87 84 81 77 70 64 58
39 32 28 28 30 33 33 39 44 51 57 102 117 129 143 147 152 136 137 140 120 92 78 76 87 97 102 104 101 101 98 94 89 87 86 85 85 85 82 76 70 63 56
44 35 33 36 39 43 46 51 57 52 54 70 84 95 87 107 127 135 134 131 120 113 103 85 86 104 116 117 117 125 120 111 101 92 90 89 89 91 87 81 71 59 51
47 45 46 49 49 51 56 59 64 62 60 66 68 71 79 85 110 128 132 136 130 123 122 127 132 136 136 130 116 176 131 122 113 105 102 108 113 113 103 89 76 62 50
58 55 56 59 58 56 56 61 63 63 65 63 67 72 76 79 90 98 112 130 136 140 138 156 156 156 161 133 156 178 142 125 136 136 142 146 148 148 135 118 106 85 57
62 65 65 64 64 61 60 63 67 64 70 67 68 71 72 83 90 98 109 106 110 133 132 148 144 145 155 155 157 175 132 139 152 155 159 159 156 158 159 157 141 109 72
65 65 67 68 67 64 63 65 65 65 69 70 71 74 74 76 89 103 110 112 117 121 123 128 130 134 154 157 148 171 164 186 150 151 151 161 165 163 164 168 168 167 132
67 69 70 70 69 66 64 66 67 65 66 68 69 72 75 81 83 85 93 96 98 112 132 134 140 146 151 149 149 187 171 170 142 138 154 163 170 178 189 202 209 213 224
68 69 71 70 69 68 68 67 67 67 66 66 66 68 70 74 78 80 84 93 104 114 122 133 133 132 145 145 169 177 159 180 191 154 170 177 179 192 207 216 217 220 231
73 72 71 71 71 70 70 71 69 68 68 67 66 65 62 64 71 84 89 93 100 112 120 130 134 141 141 148 184 178 169 180 202 176 172 187 186 200 209 211 212 220 233
74 74 75 72 69 65 57 62 77 74 72 71 69 68 65 62 53 49 68 87 100 113 125 127 130 135 125 141 138 145 167 190 172 232 243 207 194 209 193 204 207 211 230
71 73 71 71 67 62 41 35 47 73 69 69 71 74 81 74 75 67 59 55 48 62 76 93 103 93 90 80 59 331 307 260 165 129 286 254 241 252 240 194 140 182 228
75 75 75 75 74 61 44 42 35 65 69 66 65 65 71 73 73 88 98 102 75 56 37 22 69 67 84 67 13 8 27 345 354 8 303 286 260 277 265 126 151 201 233
78 77 76 77 77 59 37 35 26 71 72 68 65 65 69 64 46 36 81 86 86 75 48 46 59 51 53 35 356 334 316 258 238 219 285 297 320 309 302 168 167 201 224
84 82 77 78 78 67 32 13 356 84 80 73 66 58 57 69 32 354 62 85 87 97 112 80 41 28 6 319 312 297 309 308 323 92 260 304 319 308 286 254 177 196 216
90 88 79 74 74 67 38 16 349 70 80 86 89 88 66 46 25 360 29 68 77 69 76 129 162 199 208 191 219 277 319 329 334 338 59 316 319 315 304 296 286 204 215